EW7538 Weather Reports


Display with metric or nautical units.
time (UTC)temp
F
wind
direction
speed
MPH
gust
MPH
rain 1hr
in
rain 24hr
in
rain mn
in
humidity
%
barometer
mb
20181119171520 33 58 1.0 3.0 0.00 0.05 0.05 95 1013.7
20181119111021 34 48 1.0 3.0 0.00 0.05 0.05 94 1013.3
20181119110021 34 59 1.0 3.0 0.00 0.05 0.05 94 1013.3
20181119105021 33 57 0.0 2.0 0.00 0.05 0.05 94 1013.3
20181119104022 33 0.0 0.0 0.00 0.05 0.05 94 1013.3
20181119103021 33 62 1.0 4.0 0.00 0.05 0.05 94 1013.3
20181119102024 33 67 1.0 4.0 0.00 0.05 0.05 94 1013.2
20181119101022 33 59 2.0 4.0 0.00 0.04 0.04 94 1013.2
20181119100018 33 58 1.0 4.0 0.00 0.04 0.04 95 1013.1
20181119095018 33 71 1.0 4.0 0.00 0.04 0.04 95 1013.2
20181119094021 33 72 1.0 3.0 0.00 0.04 0.04 95 1013.2
20181119093021 33 72 1.0 3.0 0.00 0.04 0.04 95 1013.2
20181119092024 33 54 0.0 4.0 0.00 0.04 0.04 95 1013.2
20181119091022 33 72 1.0 3.0 0.00 0.04 0.04 96 1013.1
20181119090028 33 58 1.0 4.0 0.00 0.04 0.04 95 1013.0
20181119085018 33 69 3.0 5.0 0.01 0.04 0.04 96 1012.9
20181119084022 33 64 1.0 4.0 0.00 0.03 0.03 96 1012.9
20181119083021 33 59 1.0 3.0 0.00 0.03 0.03 96 1012.9
20181119082019 32 70 2.0 3.0 0.00 0.03 0.03 96 1012.9
20181119081021 32 64 2.0 5.0 0.00 0.03 0.03 96 1012.9
20181119080022 32 68 1.0 3.0 0.00 0.03 0.03 96 1012.9
20181119075024 32 53 1.0 3.0 0.00 0.03 0.03 96 1012.9
20181119074020 32 67 1.0 4.0 0.00 0.03 0.03 96 1012.9
20181119073021 32 64 1.0 4.0 0.00 0.03 0.03 96 1012.9
20181119072018 32 58 1.0 5.0 0.00 0.03 0.03 96 1012.9
20181119071021 32 0.0 0.0 0.00 0.03 0.03 96 1012.8
20181119070026 32 0.0 0.0 0.00 0.03 0.03 96 1012.8
20181119065024 32 0.0 0.0 0.00 0.02 0.02 96 1012.8
20181119064031 32 0.0 0.0 0.00 0.02 0.02
20181119063024 32 0.0 0.0 0.00 0.02 0.02 96 1012.8
20181119062021 32 0.0 0.0 0.00 0.02 0.02 96 1012.7
20181119061021 0 0.0 0.0 0.00 0.02 0.02
20181119060017 32 0.0 0.0 0.00 0.02 0.02 96
20181119055017 32 61 0.0 2.0 0.00 0.02 0.02 96 1012.6
20181119054020 32 64 0.0 1.0 0.00 0.02 0.02 96 1012.6
20181119053017 32 68 2.0 4.0 0.00 0.02 0.02 96 1012.5
20181119052018 32 75 1.0 3.0 0.00 0.01 0.01 96 1012.5
20181119051016 32 56 2.0 4.0 0.00 0.01 0.01 96 1012.4
20181119050017 32 61 1.0 2.0 0.00 0.01 0.01 96 1012.5
20181119045017 32 46 1.0 2.0 0.00 0.01 0.01 96 1012.4
20181119044017 32 55 0.0 3.0 0.00 0.01 0.01 95 1012.4
20181119043019 32 66 2.0 4.0 0.00 0.01 0.01 95 1012.4
20181119042015 32 66 1.0 3.0 0.00 0.01 0.01 95 1012.4
20181119041015 32 57 1.0 3.0 0.00 0.00 0.00 95 1012.5
20181119040019 32 57 0.0 2.0 0.00 0.00 0.00 95 1012.4
20181119035016 32 60 2.0 4.0 0.00 0.00 0.00 95 1012.4
20181119034017 32 43 1.0 4.0 0.00 0.00 0.00 95 1012.5
20181119033017 32 45 1.0 4.0 0.00 0.00 0.00 95 1012.5
20181119032018 32 52 1.0 3.0 0.00 0.00 0.00 95 1012.4
20181119031017 32 43 1.0 3.0 0.00 0.00 0.00 95 1012.5
20181119030016 32 55 1.0 4.0 0.00 0.00 0.00 95 1012.6
20181119025016 32 56 2.0 4.0 0.00 0.00 0.00 95 1012.6
20181119024016 32 56 0.0 3.0 0.00 0.00 0.00 95 1012.7
20181119023018 32 46 1.0 3.0 0.00 0.00 0.00 95 1012.7
20181119022017 32 62 0.0 3.0 0.00 0.00 0.00 95 1012.8
20181119021018 32 57 1.0 4.0 0.00 0.00 0.00 95 1013.0
20181119020019 32 45 1.0 3.0 0.00 0.00 0.00 95 1013.1
20181119015015 32 64 1.0 2.0 0.00 0.00 0.00 95 1013.2
20181119014016 32 48 1.0 3.0 0.00 0.00 0.00 95 1013.3
20181119013016 32 51 2.0 5.0 0.00 0.00 0.00 95 1013.4
20181119012017 32 62 1.0 5.0 0.00 0.00 0.00 95 1013.4
20181119011017 32 52 2.0 5.0 0.00 0.00 0.00 95 1013.5
20181119010020 32 48 1.0 3.0 0.00 0.00 0.00 95 1013.6
20181119005016 32 50 2.0 4.0 0.00 0.00 0.00 95 1013.7
20181119004016 32 50 1.0 4.0 0.00 0.00 0.00 95 1013.7
20181119003016 32 57 2.0 5.0 0.00 0.00 0.00 95 1013.8
20181119002016 32 36 0.0 2.0 0.00 0.00 0.00 94 1013.8
20181119001017 32 50 1.0 2.0 0.00 0.00 0.00 94 1013.9
20181119000017 32 31 0.0 2.0 0.00 0.00 0.00 94 1014.0
20181118235017 32 33 0.0 3.0 0.00 0.00 0.00 94 1014.1
20181118234015 32 50 1.0 3.0 0.00 0.00 0.00 94 1014.2
20181118233016 32 29 0.0 2.0 0.00 0.00 0.00 94 1014.4
20181118232016 32 54 0.0 2.0 0.00 0.00 0.00 94 1014.5
20181118231016 32 53 1.0 3.0 0.00 0.00 0.00 94 1014.6
20181118230017 32 38 1.0 3.0 0.00 0.00 0.00 94 1014.7
20181118225017 32 57 1.0 3.0 0.00 0.00 0.00 94 1014.9
20181118224017 32 43 1.0 3.0 0.00 0.00 0.00 94 1015.1
20181118223015 32 60 1.0 3.0 0.00 0.00 0.00 94 1015.2
20181118222016 32 65 0.0 3.0 0.00 0.00 0.00 94 1015.4
20181118221016 32 48 1.0 3.0 0.00 0.00 0.00 93 1015.4
20181118220016 32 64 1.0 3.0 0.00 0.00 0.00 93 1015.6
20181118215017 32 62 1.0 4.0 0.00 0.00 0.00 93 1015.7
20181118214017 32 82 1.0 3.0 0.00 0.00 0.00 93 1015.8
20181118213017 32 62 2.0 6.0 0.00 0.00 0.00 93 1015.9
20181118212018 32 46 2.0 5.0 0.00 0.00 0.00 92 1015.9
20181118211015 32 60 2.0 6.0 0.00 0.00 0.00 92 1016.0
20181118210016 32 57 2.0 5.0 0.00 0.00 0.00 92 1016.0
20181118205016 32 66 1.0 5.0 0.00 0.00 0.00 92 1016.1
20181118204017 32 63 2.0 5.0 0.00 0.00 0.00 91 1016.1
20181118203017 32 60 2.0 5.0 0.00 0.00 0.00 91 1016.2
20181118202017 32 72 2.0 5.0 0.00 0.00 0.00 90 1016.3
20181118201018 33 67 3.0 6.0 0.00 0.00 0.00 90 1016.3
20181118200019 33 79 2.0 6.0 0.00 0.00 0.00 89 1016.3
20181118195016 33 79 3.0 9.0 0.00 0.00 0.00 88 1016.4
20181118194017 33 85 4.0 8.0 0.00 0.00 0.00 87 1016.4
20181118193017 33 71 4.0 8.0 0.00 0.00 0.00 85 1016.4
20181118192017 34 65 2.0 5.0 0.00 0.00 0.00 84 1016.4
20181118191017 34 73 3.0 7.0 0.00 0.00 0.00 83 1016.5
20181118190018 34 61 2.0 4.0 0.00 0.00 0.00 83 1016.6
20181118185016 34 71 2.0 5.0 0.00 0.00 0.00 82 1016.8
20181118184016 34 79 3.0 9.0 0.00 0.00 0.00 82 1016.9
20181118183016 34 71 5.0 10.0 0.00 0.00 0.00 81 1017.1
20181118182019 34 87 5.0 9.0 0.00 0.00 0.00 81 1017.2
20181118181017 34 68 4.0 9.0 0.00 0.00 0.00 80 1017.3
20181118180017 34 65 2.0 8.0 0.00 0.00 0.00 81 1017.4
20181118175017 34 62 4.0 10.0 0.00 0.00 0.00 80 1017.4
20181118174016 35 62 3.0 8.0 0.00 0.00 0.00 80 1017.5